User: anonymous   Login
Location: Allen Fire Department Station 4
(33.1073°N, 96.6988°W)
Time: 17:10:03
(UTC+00:00)
Language:

DMSP B5D2-2 - Orbit

View from above orbital plane
View from above orbital plane
View from above satellite
View from above satellite

Ground track
Ground track

The orbit data is extracted from the following two-line orbital elements,

1 14506U 83113A   22141.50083736  .00000310  00000-0  14057-3 0  9998
2 14506  98.2875 330.6286 0010267 311.2986 102.5571 14.28250089  3026
Epoch (UTC): 21 May 2022 12:01:12
Eccentricity: 0.0010267
inclination: 98.2875°
perigee height: 790 km
apogee height: 805 km
right ascension of ascending node: 330.6286°
argument of perigee: 311.2986°
revolutions per day: 14.28250089
mean anomaly at epoch: 102.5571°
orbit number at epoch: 302

The dashed part of the orbit path shows where the satellite is in the earth's shadow,  

DLR